This is the latest recevied weather packets stored in our database for station/object F4GQK-13. If no packets are shown the sender has not sent any weather packets the latest 10 day(s).
| Time | Temp. | Humidity | Pressure | Rain* | Wind** | Luminosity | Snow |
|---|---|---|---|---|---|---|---|
| 1777914305 | 16.11° C | 90% | 1012 hPa | 0 mm | - | 65 W/m² | - |
| 1777914005 | 16.67° C | 90% | 1012 hPa | 0 mm | - | 58 W/m² | - |
| 1777913705 | 16.67° C | 90% | 1012.2 hPa | 0 mm | - | 55 W/m² | - |
| 1777913405 | 16.67° C | 90% | 1012 hPa | 0 mm | - | 53 W/m² | - |
| 1777913105 | 16.67° C | 90% | 1012.3 hPa | 0 mm | - | 53 W/m² | - |
| 1777912805 | 16.67° C | 89% | 1012.4 hPa | 0 mm | - | 53 W/m² | - |
| 1777912505 | 16.67° C | 89% | 1012.3 hPa | 0 mm | - | 55 W/m² | - |
| 1777912205 | 16.67° C | 88% | 1012.5 hPa | 0 mm | - | 63 W/m² | - |
| 1777911905 | 17.22° C | 88% | 1012.3 hPa | 0 mm | - | 64 W/m² | - |
| 1777911606 | 17.22° C | 87% | 1012.3 hPa | 0 mm | - | 67 W/m² | - |
| 1777911305 | 17.22° C | 87% | 1012.5 hPa | 0 mm | - | 83 W/m² | - |
| 1777911005 | 17.22° C | 83% | 1012.4 hPa | 0 mm | - | 103 W/m² | - |
| 1777910705 | 17.22° C | 84% | 1012.3 hPa | 0 mm | - | 125 W/m² | - |
| 1777910405 | 17.22° C | 84% | 1012.3 hPa | 0 mm | - | 158 W/m² | - |
| 1777910104 | 17.22° C | 85% | 1012.5 hPa | 0 mm | - | 214 W/m² | - |
| 1777909803 | 17.22° C | 84% | 1012.5 hPa | 0 mm | - | 249 W/m² | - |
| 1777909504 | 17.22° C | 84% | 1012.3 hPa | 0 mm | - | 254 W/m² | - |
| 1777909205 | 16.67° C | 84% | 1012.4 hPa | 0 mm | - | 238 W/m² | - |
| 1777908905 | 17.22° C | 86% | 1012.5 hPa | 0 mm | - | 209 W/m² | - |
| 1777908606 | 17.22° C | 85% | 1012.3 hPa | 0 mm | - | 217 W/m² | - |
| 1777908306 | 17.22° C | 85% | 1012.6 hPa | 0 mm | - | 226 W/m² | - |
| 1777908004 | 17.22° C | 85% | 1012.4 hPa | 0 mm | - | 217 W/m² | - |
| 1777907705 | 17.22° C | 86% | 1012.4 hPa | 0 mm | - | 210 W/m² | - |
| 1777907405 | 17.22° C | 86% | 1012.5 hPa | 0 mm | - | 225 W/m² | - |
| 1777907105 | 17.22° C | 86% | 1012.3 hPa | 0 mm | - | 239 W/m² | - |
* Rain latest hour (hover to see other rain measurements)
** Current wind speed in m/s (hover to see current wind gust speed)